METAR Formatted Surface Weather Observation
Issued by NWS

Home | Current Version | Previous Version | Text Only | Print | Product List | Glossary On
Versions: 1 2 3 4 5 6 7 8 9 10 11 12 13 14 15 16 17
000
SAUS41 KLWX 040500
MTRRYT
METAR KRYT 040453Z AUTO 25003KT 5SM BR OVC034 00/M02 A2978 RMK AO2
UPB0356E08 SLP100 P0000 T00001017 400111056 $



USA.gov is the U.S. government's official web portal to all federal, state and local government web resources and services.